This demonstration page uses our WeatherBlox Daily Observations layout. Learn more.

Left ArrowRight Arrow

38.89511, -77.03637

Hourly Observations for March 21, 2019

Temp ( °F °C ) Dew Point ( °F °C ) Humidity (%) Winds ( mph kmh ) Pressure ( in mb ) Visibility ( mi km ) Precip ( " mm )
12:05 am 00:05 Cloudy 48 8.9 37 2.8 66 66 E 6 9 30.20 1023 10 16 0.00 0.00
12:52 am 00:52 Cloudy with Light Rain 47 8.3 37 2.8 69 69 E 5 7 30.18 1022 10 16 0.00 0.03
1:38 am 01:38 Cloudy with Light Rain 47 8.3 38 3.3 71 71 E 3 6 30.17 1022 10 16 0.00 0.03
1:52 am 01:52 Cloudy with Light Rain 47 8.3 38 3.3 71 71 Calm 30.17 1022 10 16 0.00 0.03
2:38 am 02:38 Cloudy with Light Rain 45 7.2 39 3.9 80 80 NE 8 13 30.14 1021 10 16 0.01 0.25
2:50 am 02:50 Cloudy with Light Rain 45 7 39 4 81 81 NNE 9 15 30.14 1021 10 16 0.01 0.25
2:52 am 02:52 Cloudy with Light Rain 45 7.2 40 4.4 83 83 NNE 8 13 30.13 1020 10 16 0.01 0.25
3:52 am 03:52 Cloudy with Light Rain 44 6.7 40 4.4 85 85 NNE 8 13 30.10 1019 4 6 0.02 0.51
4:28 am 04:28 Cloudy with Light Rain 44 6.7 41 5 89 89 N 10 17 30.07 1018 5 8 0.06 1.52
4:32 am 04:32 Cloudy with Light Rain 44 6.7 41 5 89 89 N 9 15 30.07 1018 5 8 0.06 1.52
4:52 am 04:52 Cloudy with Light Rain 44 6.7 41 5 89 89 NNE 12 19 30.05 1018 5 8 0.07 1.78
5:04 am 05:04 Cloudy with Light Rain 44 6.7 41 5 89 89 NNE 10 17 30.05 1018 5 8 0.00 0.03
5:18 am 05:18 Cloudy with Light Rain 44 6.7 41 5 89 89 NNE 9 15 30.05 1018 4 6 0.01 0.25
5:52 am 05:52 Cloudy 45 7.2 41 5 86 86 NNE 9 15 30.03 1017 8 13 0.01 0.25
6:35 am 06:35 Cloudy with Light Rain 45 7.2 41 5 86 86 NNE 9 15 30.02 1017 4 6 0.01 0.25
6:52 am 06:52 Cloudy with Light Rain 45 7.2 42 5.6 90 90 NNE 8 13 30.01 1016 4 6 0.02 0.51
7:52 am 07:52 Cloudy with Light Rain 46 7.8 42 5.6 86 86 N 10 17 30.00 1016 3 4 0.03 0.76
8:07 am 08:07 Cloudy with Light Rain 46 7.8 42 5.6 86 86 N 12 19 29.99 1016 3 5 0.01 0.25
8:52 am 08:52 Cloudy with Heavy Rain 46 7.8 43 6.1 89 89 NNE 8 13 29.98 1015 3 5 0.06 1.52
9:01 am 09:01 Cloudy with Rain 47 8.3 43 6.1 86 86 NNE 6 9 29.99 1016 2 3 0.03 0.76
9:11 am 09:11 Cloudy with Rain 47 8.3 43 6.1 86 86 N 8 13 29.98 1015 2 3 0.06 1.52
9:44 am 09:44 Cloudy with Rain 47 8.3 44 6.7 90 90 NNW 8 13 29.97 1015 2 3 0.16 4.06
9:52 am 09:52 Cloudy with Rain 46 7.8 43 6.1 89 89 NNW 9 15 29.97 1015 2 3 0.18 4.57
10:52 am 10:52 Cloudy with Heavy Rain 46 7.8 43 6.1 89 89 N 9 15 29.96 1014 2 3 0.20 5.08
10:59 am 10:59 Cloudy with Heavy Rain 46 7.8 43 6.1 89 89 N 9 15 29.95 1014 3 5 0.03 0.76
11:06 am 11:06 Cloudy with Rain 47 8.3 44 6.7 90 90 N 13 20 29.94 1014 3 5 0.06 1.52
11:30 am 11:30 Cloudy with Rain 47 8.3 44 6.7 90 90 NNE 12 19 29.92 1013 4 6 0.13 3.30
11:52 am 11:52 Cloudy with Light Rain 47 8.3 44 6.7 90 90 NNE 14 22 29.89 1012 7 11 0.15 3.81
12:52 pm 12:52 Cloudy with Light Rain 48 8.9 44 6.7 86 86 NNE 14 22 29.84 1011 7 11 0.01 0.25
1:36 pm 13:36 Cloudy with Light Rain 49 9.4 45 7.2 86 86 NE 16 26 29.80 1009 5 8 0.02 0.51
1:40 pm 13:40 Cloudy with Heavy Rain 48 8.9 45 7.2 89 89 NNE 13 20 29.80 1009 2 3 0.04 1.02
1:44 pm 13:44 Cloudy with Rain 48 8.9 45 7.2 89 89 NNE 15 24 29.80 1009 2 2 0.05 1.27
1:52 pm 13:52 Cloudy with Light Rain 49 9.4 45 7.2 86 86 NNE 13 20 29.79 1009 2 3 0.06 1.52
2:25 pm 14:25 Cloudy with Light Rain 49 9.4 46 7.8 90 90 NNE 13 20 29.76 1008 4 6 0.06 1.52
2:39 pm 14:39 Cloudy with Light Rain 49 9.4 46 7.8 90 90 N 14 22 29.74 1007 2 2 0.07 1.78
2:52 pm 14:52 Cloudy with Light Rain 49 9.4 46 7.8 90 90 N 14 22 29.72 1007 3 4 0.09 2.29
2:56 pm 14:56 Cloudy with Light Rain 49 9.4 46 7.8 90 90 N 14 22 29.72 1006 4 6 0.00 0.03
3:27 pm 15:27 Cloudy with Rain 49 9.4 46 7.8 90 90 NNW 15 24 29.70 1006 5 8 0.01 0.25
3:34 pm 15:34 Cloudy with Heavy Rain 49 9.4 45 7.2 86 86 NNW 13 20 29.69 1005 2 3 0.02 0.51
3:52 pm 15:52 Cloudy with Light Rain 49 9.4 45 7.2 86 86 NNW 15 24 29.67 1005 4 6 0.08 2.03
4:06 pm 16:06 Cloudy with Light Rain 48 8.9 45 7.2 89 89 NW 15 24 29.67 1005 1 2 0.03 0.76
4:17 pm 16:17 Cloudy with Heavy Rain 48 8.9 44 6.7 86 86 NNW 21 33 29.66 1004 1 2 0.09 2.29
4:33 pm 16:33 Cloudy with Heavy Rain 47 8.3 44 6.7 90 90 NNW 24 39 29.65 1004 1 2 0.19 4.83
4:52 pm 16:52 Cloudy with Heavy Rain 47 8.3 43 6.1 86 86 WNW 17 28 29.64 1004 2 2 0.29 7.37
5:02 pm 17:02 Cloudy with Heavy Rain 46 7.8 43 6.1 89 89 NW 17 28 29.63 1003 1 2 0.06 1.52
5:52 pm 17:52 Cloudy with Heavy Rain 46 7.8 42 5.6 86 86 NW 22 35 29.63 1003 1 2 0.37 9.40
6:17 pm 18:17 Cloudy with Heavy Rain 47 8.3 42 5.6 83 83 NW 21 33 29.61 1003 2 3 0.16 4.06
6:28 pm 18:28 Cloudy with Heavy Rain 47 8.3 42 5.6 83 83 NW 21 33 29.61 1003 3 4 0.20 5.08
6:36 pm 18:36 Cloudy with Heavy Rain 47 8.3 42 5.6 83 83 NNW 22 35 29.60 1002 3 5 0.24 6.10
6:47 pm 18:47 Cloudy with Light Rain 46 8 43 6 87 87 NNW 24 39 29.59 1002 3 5 0.26 6.60
6:52 pm 18:52 Cloudy with Light Rain 47 8.3 42 5.6 83 83 NW 21 33 29.59 1002 5 8 0.26 6.60
7:36 pm 19:36 Cloudy with Light Rain 47 8.3 42 5.6 83 83 NW 23 37 29.57 1001 10 16 0.04 1.02
7:52 pm 19:52 Cloudy 47 8.3 42 5.6 83 83 NW 22 35 29.57 1001 10 16 0.04 1.02
8:03 pm 20:03 Cloudy 47 8.3 42 5.6 83 83 NW 21 33 29.57 1001 10 16 0.00 0.00
9:21 pm 21:21 Cloudy with Light Rain 45 7.2 40 4.4 83 83 NW 22 35 29.56 1001 5 8 0.00 0.03
9:52 pm 21:52 Cloudy with Light Rain 44 6.7 40 4.4 85 85 NW 20 31 29.55 1001 6 10 0.00 0.03
10:46 pm 22:46 Cloudy with Light Rain 45 7 39 4 81 81 NW 21 33 29.54 1000 4 6 0.00 0.03
10:52 pm 22:52 Cloudy with Light Rain 43 6.1 39 3.9 86 86 NW 20 31 29.54 1000 4 6 0.00 0.03
11:01 pm 23:01 Cloudy with Light Rain 43 6.1 39 3.9 86 86 WNW 23 37 29.54 1000 4 6 0.00 0.03
11:27 pm 23:27 Cloudy with Light Rain 43 6.1 39 3.9 86 86 NW 21 33 29.54 1000 5 8 0.00 0.03
11:47 pm 23:47 Cloudy 45 7 39 4 81 81 NW 26 43 29.54 1000 8 13 0.00 0.03
11:52 pm 23:52 Cloudy 44 6.7 39 3.9 83 83 NW 18 30 29.54 1000 9 14 0.00 0.03

Powered by AerisWeather